sat.trackr.live / text

‹ back to catalog

GSAT0217 (GALILEO 21)

NORAD 43057 · 2017-079C

PAYLOAD ACTIVE UNKNOWN

§ Identity

Operator
Country
ESA
Launch date
2017-12-12
Launch site
FRGUI
Launch vehicle
Mass (kg)
RCS (m²)

Purposes: earth_obs, nav

External: N2YO · Heavens-Above · Gunter

§ Orbital elements

Epoch: 2026-09-19T23:12:36.108576Z

Period
844.70 min
Inclination
55.0501°
Eccentricity
0.0003944
Mean motion
1.70473993 rev/d
Perigee alt
23,210.5 km
Apogee alt
23,233.9 km
Semi-major
29,600.3 km
B*
0.0000e+0
RAAN
218.8978°
Arg perigee
307.3513°
Mean anomaly
52.5857°
Rev number
5,460

§ Raw data

GSAT0217 (GALILEO 21)1 43057U 17079C   26262.96708459  .00000016  00000+0  00000+0 0  99942 43057  55.0501 218.8978 0003944 307.3513  52.5857  1.70473993 54602

JSON: /api/v1/satellites/43057 · /tle

For live sub-satellite position, see the globe view (requires WebGL).

§ Visibility from observer

Set your observer location to see the next 7 days of passes ≥ 10°. The values pass through the URL so the page stays shareable.

No JS? Fill the form by hand. The geolocation button needs JavaScript.